Weather History for PAHN - November, 2011

Change the Weather History Date:

Sunday, November 6, 2011

  Actual Average Record
Temperature  
Mean Temperature 34 °F -  
Max Temperature 39 °F 36 °F 49 °F (1979)
Min Temperature 28 °F 29 °F 12 °F (2006)
Degree Days  
Heating Degree Days 32    
Moisture  
Dew Point 33 °F    
Average Humidity 92    
Maximum Humidity 100    
Minimum Humidity 87    
Precipitation  
Precipitation 0.09 in - - ()
Sea Level Pressure  
Sea Level Pressure 29.61 in    
Wind  
Wind Speed 9 mph (East)    
Max Wind Speed 18 mph    
Max Gust Speed 39 mph    
Visibility 8 miles    
Events Rain , Snow    
Averages and records for this station are not official NWS values.
T = Trace of Precipitation, MM = Missing Value Source: NWS Daily Summary

Daily Weather History Graph

Daily Weather History Graph

Search for Another Location

Airport or City:

Trip Planner

Search our weather history database for the weather conditions in past years. The results will help you decide how hot, cold, wet, or windy it might be!

Date:

Astronomy

Nov. 06, 2011 Rise Set
Actual Time 7:33 AM AKST 3:57 PM AKST
Civil Twilight 6:48 AM AKST 4:42 PM AKST
Nautical Twilight 5:59 AM AKST 5:31 PM AKST
Astronomical Twilight 5:11 AM AKST 6:18 PM AKST
Moon 2:23 PM AKST (11/6) 3:01 AM AKST (11/6)
Length of Visible Light 9h 54m
Length of Day
8h 23m
Waxing Gibbous, 86% of the Moon is Illuminated
Nov 6
Waxing Gibbous
Nov 10
Full
Nov 18
Last Quarter
Nov 24
New
Dec 2
First Quarter

Hourly Weather History & Observations

Time (AKST) Temp. Windchill Dew Point Humidity Pressure Visibility Wind Dir Wind Speed Gust Speed Precip Events Conditions
12:49 AM 28.4 °F 22.2 °F 26.6 °F 93% 29.77 in 4.0 mi WNW 5.8 mph - 0.00 in Snow Light Snow
12:54 AM 28.9 °F 22.8 °F 28.0 °F 96% 29.78 in 5.0 mi West 5.8 mph - 0.00 in   Overcast
1:14 AM 28.4 °F 20.4 °F 26.6 °F 93% 29.77 in 2.0 mi WNW 8.1 mph - 0.00 in Snow Light Snow
1:23 AM 28.4 °F 19.7 °F 26.6 °F 93% 29.77 in 2.0 mi WNW 9.2 mph - 0.00 in Snow Light Snow
1:30 AM 28.4 °F 19.7 °F 26.6 °F 93% 29.77 in 2.0 mi WNW 9.2 mph - 0.00 in Snow Light Snow
1:39 AM 28.4 °F 20.4 °F 26.6 °F 93% 29.76 in 2.5 mi WNW 8.1 mph - 0.00 in Snow Light Snow
1:52 AM 28.4 °F 22.2 °F 26.6 °F 93% 29.76 in 1.8 mi WNW 5.8 mph - 0.00 in Snow Light Snow
1:54 AM 28.0 °F 21.7 °F 27.0 °F 96% 29.77 in 1.8 mi WNW 5.8 mph - 0.00 in Snow Light Snow
1:54 AM 28.0 °F 18.1 °F 27.0 °F 96% 29.76 in 2.0 mi WNW 11.5 mph - 0.02 in Snow Light Snow
2:15 AM 28.4 °F 18.5 °F 26.6 °F 93% 29.75 in 3.0 mi WNW 11.5 mph - 0.01 in Snow Light Snow
2:25 AM 28.4 °F 18.5 °F 26.6 °F 93% 29.74 in 3.0 mi WNW 11.5 mph - 0.01 in Snow Light Snow
2:54 AM 28.0 °F 20.0 °F 27.0 °F 96% 29.74 in 4.0 mi WNW 8.1 mph - 0.01 in Snow Light Snow
3:54 AM 28.9 °F 20.4 °F 27.0 °F 92% 29.72 in 5.0 mi WNW 9.2 mph - 0.01 in Snow Light Snow
4:54 AM 28.9 °F 21.9 °F 27.0 °F 92% 29.70 in 10.0 mi Variable 6.9 mph - 0.01 in   Overcast
5:54 AM 28.9 °F 22.8 °F 28.0 °F 96% 29.69 in 10.0 mi WNW 5.8 mph - 0.00 in   Overcast
6:54 AM 28.9 °F 23.9 °F 28.0 °F 96% 29.67 in 10.0 mi Variable 4.6 mph - 0.00 in   Overcast
7:06 AM 28.4 °F 22.2 °F 28.4 °F 100% 29.66 in 10.0 mi NW 5.8 mph - 0.00 in Rain Light Freezing Rain
7:42 AM 33.8 °F 28.6 °F 30.2 °F 87% 29.65 in 10.0 mi Variable 5.8 mph - 0.00 in   Overcast
7:54 AM 37.0 °F 32.4 °F 35.1 °F 93% 29.65 in 10.0 mi Variable 5.8 mph - 0.00 in Rain Light Rain
8:54 AM 37.0 °F 30.4 °F 35.1 °F 93% 29.63 in 10.0 mi East 9.2 mph - 0.00 in Rain Light Rain
9:06 AM 37.4 °F 29.3 °F 35.6 °F 93% 29.62 in 10.0 mi ESE 12.7 mph 20.7 mph 0.00 in Rain Light Rain
9:14 AM 39.2 °F 30.8 °F 35.6 °F 87% 29.62 in 10.0 mi ESE 15.0 mph 25.3 mph 0.00 in Rain Light Rain
9:54 AM 39.0 °F 29.9 °F 36.0 °F 89% 29.62 in 10.0 mi ESE 17.3 mph 33.4 mph 0.01 in Rain Light Rain
10:39 AM 37.4 °F 28.9 °F 35.6 °F 93% 29.59 in 10.0 mi East 13.8 mph 19.6 mph 0.00 in Rain Light Rain
10:54 AM 39.0 °F 31.4 °F 36.0 °F 89% 29.60 in 10.0 mi East 12.7 mph 26.5 mph 0.01 in Rain Light Rain
11:54 AM 37.9 °F 29.6 °F 36.0 °F 93% 29.57 in 10.0 mi ESE 13.8 mph 31.1 mph 0.00 in Rain Light Rain
12:54 PM 39.0 °F 31.0 °F 36.0 °F 89% 29.55 in 10.0 mi East 13.8 mph 28.8 mph 0.00 in Rain Light Rain
1:04 PM 39.2 °F 31.2 °F 35.6 °F 87% 29.54 in 10.0 mi ESE 13.8 mph 23.0 mph 0.00 in Rain Light Rain
1:25 PM 37.4 °F 29.3 °F 35.6 °F 93% 29.52 in 10.0 mi East 12.7 mph 26.5 mph 0.01 in Rain Light Rain
1:54 PM 37.9 °F 28.9 °F 36.0 °F 93% 29.51 in 10.0 mi ESE 16.1 mph 26.5 mph 0.01 in Rain Light Rain
2:11 PM 37.4 °F 28.2 °F 35.6 °F 93% 29.49 in 9.0 mi East 16.1 mph 29.9 mph 0.01 in Rain Light Rain
2:54 PM 37.9 °F 28.2 °F 36.0 °F 93% 29.47 in 10.0 mi East 18.4 mph 28.8 mph 0.01 in Rain Light Rain
3:43 PM 37.4 °F 28.2 °F 35.6 °F 93% 29.47 in 10.0 mi ESE 16.1 mph 39.1 mph 0.00 in Rain Light Rain
3:54 PM 37.9 °F 28.5 °F 35.1 °F 89% 29.49 in 10.0 mi ESE 17.3 mph 27.6 mph 0.00 in Rain Light Rain
4:21 PM 37.4 °F 29.8 °F 35.6 °F 93% 29.48 in 10.0 mi ESE 11.5 mph 24.2 mph 0.00 in Rain Light Rain
4:40 PM 37.4 °F 29.3 °F 35.6 °F 93% 29.48 in 10.0 mi ESE 12.7 mph 25.3 mph 0.00 in   Overcast
4:51 PM 37.4 °F 29.8 °F 35.6 °F 93% 29.48 in 10.0 mi East 11.5 mph 21.9 mph 0.00 in Rain Light Rain
4:54 PM 37.9 °F 30.9 °F 35.1 °F 89% 29.49 in 10.0 mi East 10.4 mph 19.6 mph 0.00 in   Overcast
5:23 PM 37.4 °F 28.9 °F 35.6 °F 93% 29.48 in 10.0 mi East 13.8 mph 20.7 mph N/A   Overcast
5:35 PM 37.4 °F 30.8 °F 35.6 °F 93% 29.48 in 10.0 mi ESE 9.2 mph 23.0 mph N/A   Overcast
5:54 PM 39.0 °F 32.3 °F 36.0 °F 89% 29.50 in 10.0 mi East 10.4 mph 21.9 mph N/A   Overcast
6:03 PM 37.4 °F 30.3 °F 35.6 °F 93% 29.49 in 10.0 mi East 10.4 mph 18.4 mph N/A   Overcast
6:36 PM 39.2 °F 31.2 °F 35.6 °F 87% 29.51 in 10.0 mi East 13.8 mph 20.7 mph N/A   Overcast
6:54 PM 39.0 °F 32.3 °F 36.0 °F 89% 29.52 in 10.0 mi ESE 10.4 mph 19.6 mph N/A   Overcast
7:54 PM 39.0 °F 31.4 °F 36.0 °F 89% 29.52 in 10.0 mi ESE 12.7 mph 19.6 mph N/A   Overcast
8:54 PM 39.0 °F - 36.0 °F 89% 29.53 in 10.0 mi Calm Calm - N/A   Overcast
9:52 PM 39.2 °F 33.0 °F 35.6 °F 87% 29.54 in 10.0 mi ESE 9.2 mph 21.9 mph N/A   Overcast
9:54 PM 39.0 °F 32.8 °F 36.0 °F 89% 29.55 in 10.0 mi ESE 9.2 mph 21.9 mph N/A   Overcast
10:12 PM 39.2 °F 33.0 °F 35.6 °F 87% 29.54 in 10.0 mi ESE 9.2 mph 19.6 mph N/A   Overcast
10:54 PM 39.0 °F 31.8 °F 36.0 °F 89% 29.55 in 10.0 mi ESE 11.5 mph 19.6 mph N/A   Overcast